KB1WCR Weather Reports


time (UTC)temp
C
wind
direction
speed
KPH
gust
KPH
rain 1hr
cm
rain 24hr
cm
rain mn
cm
humidity
%
barometer
mb
20260831011451 18 314 0.0 0.0 0.00 0.00 0.00 90 1015.8
20260831010948 18 316 0.0 0.0 0.00 0.00 0.00 90 1015.7
20260831010447 18 304 0.0 0.0 0.00 0.00 0.00 90 1015.6
20260831005943 18 314 0.0 0.0 0.00 0.00 0.00 90 1015.6
20260831005439 18 316 0.0 0.0 0.00 0.00 0.00 89 1015.4
20260831004938 18 311 0.0 0.0 0.00 0.00 0.00 87 1015.5
20260831004435 18 308 0.0 0.0 0.00 0.00 0.00 86 1015.4
20260831003930 19 308 0.0 0.0 0.00 0.00 0.00 86 1015.4
20260831003426 20 308 0.0 0.0 0.00 0.00 0.00 84 1015.2
20260831002925 20 308 0.0 0.0 0.00 0.00 0.00 82 1015.4
20260831002424 20 300 0.0 0.0 0.00 0.00 0.00 82 1015.4
20260831001920 20 316 0.0 0.0 0.00 0.00 0.00 82 1015.3
20260831001415 20 310 0.0 0.0 0.00 0.00 0.00 82 1015.4
20260831000913 20 300 0.0 0.0 0.00 0.00 0.00 82 1015.2
20260831000410 20 305 0.0 0.0 0.00 0.00 0.00 81 1015.0
20260830235906 20 307 0.0 0.0 0.00 0.00 0.00 80 1015.1
20260830235401 20 309 0.0 0.0 0.00 0.00 0.00 79 1015.0
20260830234856 21 303 0.0 0.0 0.00 0.00 0.00 78 1014.9
20260830234351 21 310 0.0 0.0 0.00 0.00 0.00 78 1014.9
20260830233848 21 303 0.0 0.0 0.00 0.00 0.00 77 1015.1
20260830233343 21 305 0.0 0.0 0.00 0.00 0.00 76 1015.0
20260830232838 21 306 0.0 0.0 0.00 0.00 0.00 75 1015.0
20260830232334 21 301 1.6 1.6 0.00 0.00 0.00 74 1015.0
20260830231830 21 294 0.0 0.0 0.00 0.00 0.00 74 1015.0
20260830231325 21 318 0.0 0.0 0.00 0.00 0.00 75 1014.9
20260830230824 22 289 3.2 6.4 0.00 0.00 0.00 72 1015.1
20260830230320 21 302 3.2 4.8 0.00 0.00 0.00 72 1014.9
20260830225820 21 301 1.6 3.2 0.00 0.00 0.00 73 1014.8
20260830225314 21 301 0.0 0.0 0.00 0.00 0.00 74 1015.1
20260830224809 21 286 0.0 1.6 0.00 0.00 0.00 73 1014.9
20260830224303 21 284 1.6 1.6 0.00 0.00 0.00 73 1014.9
20260830223800 21 273 0.0 0.0 0.00 0.00 0.00 75 1015.0
20260830223255 22 294 0.0 0.0 0.00 0.00 0.00 74 1014.9
20260830222749 21 289 1.6 1.6 0.00 0.00 0.00 73 1015.0
20260830222246 21 294 0.0 0.0 0.00 0.00 0.00 74 1015.2
20260830221740 22 268 0.0 0.0 0.00 0.00 0.00 75 1015.2
20260830221238 22 293 0.0 0.0 0.00 0.00 0.00 75 1014.9
20260830220733 22 284 0.0 0.0 0.00 0.00 0.00 75 1014.7
20260830220231 22 317 0.0 1.6 0.00 0.00 0.00 75 1015.1
20260830215730 22 294 0.0 0.0 0.00 0.00 0.00 75 1014.9
20260830215225 22 269 1.6 3.2 0.00 0.00 0.00 75 1015.1
20260830214720 22 294 1.6 1.6 0.00 0.00 0.00 76 1015.0
20260830214220 22 280 1.6 1.6 0.00 0.00 0.00 76 1015.0
20260830213719 22 280 0.0 1.6 0.00 0.00 0.00 77 1014.9
20260830213219 22 290 0.0 1.6 0.00 0.00 0.00 77 1015.2
20260830212715 22 272 0.0 0.0 0.00 0.00 0.00 77 1014.9
20260830212211 22 288 0.0 0.0 0.00 0.00 0.00 78 1014.9
20260830211706 22 289 0.0 0.0 0.00 0.00 0.00 78 1015.2
20260830211204 22 297 0.0 0.0 0.00 0.00 0.00 77 1015.2
20260830210700 22 289 0.0 0.0 0.00 0.00 0.00 78 1015.2
20260830210200 22 245 0.0 0.0 0.00 0.00 0.00 76 1015.2
20260830205657 23 273 0.0 1.6 0.00 0.00 0.00 77 1015.3
20260830205153 22 288 0.0 0.0 0.00 0.00 0.00 77 1015.1
20260830204652 23 274 1.6 1.6 0.00 0.00 0.00 77 1015.1
20260830204151 22 264 0.0 0.0 0.00 0.00 0.00 78 1015.2
20260830203648 22 263 0.0 1.6 0.00 0.00 0.00 81 1015.2
20260830203143 22 284 0.0 0.0 0.00 0.00 0.00 83 1015.2
20260830202643 22 286 0.0 0.0 0.00 0.00 0.00 83 1015.3
20260830202138 21 291 0.0 0.0 0.00 0.00 0.00 84 1015.4
20260830201638 21 286 0.0 0.0 0.00 0.00 0.00 85 1015.4
20260830201133 21 308 0.0 0.0 0.00 0.00 0.00 84 1015.5
20260830200628 21 301 0.0 0.0 0.00 0.00 0.00 85 1015.5
20260830200127 21 296 0.0 0.0 0.00 0.00 0.00 85 1015.4
20260830195623 21 290 0.0 0.0 0.00 0.00 0.00 84 1015.6
20260830195120 21 288 0.0 0.0 0.00 0.00 0.00 84 1015.7
20260830194615 21 239 1.6 3.2 0.00 0.00 0.00 84 1015.7
20260830194114 21 283 1.6 1.6 0.00 0.00 0.00 85 1015.7
20260830193609 21 298 1.6 1.6 0.00 0.00 0.00 85 1015.6
20260830193104 21 284 0.0 0.0 0.00 0.00 0.00 86 1015.6
20260830192600 21 274 0.0 0.0 0.00 0.00 0.00 86 1016.0
20260830192059 21 266 1.6 1.6 0.00 0.00 0.00 85 1015.9
20260830191554 21 214 1.6 3.2 0.00 0.00 0.00 86 1016.0
20260830191044 21 259 1.6 3.2 0.00 0.00 0.00 87 1016.0
20260830190539 21 286 1.6 1.6 0.00 0.00 0.00 87 1016.3
20260830190034 21 236 1.6 1.6 0.00 0.00 0.00 87 1016.3
20260830185527 21 245 1.6 3.2 0.00 0.00 0.00 87 1016.5
20260830185023 21 297 1.6 1.6 0.00 0.00 0.00 87 1016.3
20260830184522 21 256 1.6 1.6 0.00 0.00 0.00 87 1016.4
20260830184012 21 290 0.0 0.0 0.00 0.00 0.00 87 1016.7
20260830183512 21 254 1.6 3.2 0.00 0.00 0.00 85 1016.7
20260830183008 21 259 1.6 1.6 0.00 0.00 0.00 85 1016.5
20260830182503 21 294 0.0 0.0 0.00 0.00 0.00 83 1016.5
20260830181959 21 293 0.0 0.0 0.00 0.00 0.00 85 1016.8
20260830181454 21 294 0.0 0.0 0.00 0.00 0.00 86 1016.9
20260830180949 21 283 0.0 0.0 0.00 0.00 0.00 81 1016.9
20260830180448 21 313 0.0 1.6 0.00 0.00 0.00 81 1017.1
20260830175946 21 251 1.6 1.6 0.00 0.00 0.00 83 1017.0
20260830175441 21 323 3.2 3.2 0.00 0.00 0.00 78 1017.1
20260830174936 21 299 3.2 3.2 0.00 0.00 0.00 78 1017.0
20260830174432 22 316 1.6 1.6 0.00 0.00 0.00 78 1017.2
20260830173921 22 253 4.8 4.8 0.00 0.00 0.00 76 1017.1
20260830173417 22 310 3.2 3.2 0.00 0.00 0.00 77 1017.3
20260830172913 22 310 1.6 1.6 0.00 0.00 0.00 76 1017.4
20260830172409 22 282 0.0 0.0 0.00 0.00 0.00 77 1017.3
20260830171904 22 277 1.6 1.6 0.00 0.00 0.00 74 1017.4
20260830171359 22 292 0.0 0.0 0.00 0.00 0.00 74 1017.5
20260830170859 22 230 3.2 4.8 0.00 0.00 0.00 71 1017.3
20260830170354 23 272 0.0 1.6 0.00 0.00 0.00 72 1017.2
20260830165852 23 286 0.0 0.0 0.00 0.00 0.00 73 1017.4
20260830165349 23 255 1.6 1.6 0.00 0.00 0.00 72 1017.3
20260830164845 23 291 0.0 1.6 0.00 0.00 0.00 71 1017.1
20260830164340 23 281 0.0 0.0 0.00 0.00 0.00 72 1017.2
20260830163836 23 235 1.6 1.6 0.00 0.00 0.00 69 1017.2
20260830163331 23 256 1.6 1.6 0.00 0.00 0.00 69 1017.3
20260830162826 24 289 0.0 0.0 0.00 0.00 0.00 69 1017.3
20260830162323 24 273 1.6 1.6 0.00 0.00 0.00 67 1017.3
20260830161818 24 269 0.0 0.0 0.00 0.00 0.00 67 1017.3
20260830161317 24 285 1.6 1.6 0.00 0.00 0.00 68 1017.5
20260830160812 24 282 1.6 1.6 0.00 0.00 0.00 66 1017.4
20260830160307 24 299 0.0 0.0 0.00 0.00 0.00 66 1017.6
20260830155803 25 252 1.6 3.2 0.00 0.00 0.00 68 1017.6
20260830155259 24 256 1.6 1.6 0.00 0.00 0.00 69 1017.5
20260830154754 25 17 3.2 3.2 0.00 0.00 0.00 65 1017.5
20260830154249 25 294 0.0 0.0 0.00 0.00 0.00 66 1017.5
20260830153746 24 275 0.0 1.6 0.00 0.00 0.00 67 1017.4
20260830153241 24 288 0.0 1.6 0.00 0.00 0.00 68 1017.7
20260830152739 24 236 3.2 4.8 0.00 0.00 0.00 65 1017.8
20260830152234 25 252 1.6 3.2 0.00 0.00 0.00 65 1017.6
20260830151728 24 305 1.6 1.6 0.00 0.00 0.00 66 1017.9
20260830151228 23 242 1.6 3.2 0.00 0.00 0.00 70 1017.7
20260830150723 23 246 1.6 3.2 0.00 0.00 0.00 68 1017.8
20260830150217 23 234 3.2 3.2 0.00 0.00 0.00 69 1017.9
20260830145712 23 301 1.6 1.6 0.00 0.00 0.00 70 1018.1
20260830145207 23 353 1.6 1.6 0.00 0.00 0.00 71 1018.1
20260830144702 23 299 1.6 1.6 0.00 0.00 0.00 72 1018.0
20260830144158 23 229 1.6 3.2 0.00 0.00 0.00 68 1018.3
20260830143654 24 232 1.6 3.2 0.00 0.00 0.00 68 1018.1
20260830143152 23 63 1.6 1.6 0.00 0.00 0.00 69 1018.1
20260830142647 23 269 0.0 0.0 0.00 0.00 0.00 70 1018.3
20260830142142 23 239 3.2 3.2 0.00 0.00 0.00 72 1018.3
20260830141637 22 292 0.0 1.6 0.00 0.00 0.00 72 1018.4
20260830141132 22 310 1.6 1.6 0.00 0.00 0.00 72 1018.2
20260830140627 22 274 0.0 1.6 0.00 0.00 0.00 74 1018.3
20260830140121 21 277 0.0 0.0 0.00 0.00 0.00 75 1018.4
20260830135616 21 277 0.0 0.0 0.00 0.00 0.00 76 1018.3
20260830135111 21 245 0.0 0.0 0.00 0.00 0.00 75 1018.6
20260830134606 21 315 3.2 4.8 0.00 0.00 0.00 73 1018.2
20260830134101 20 269 0.0 0.0 0.00 0.00 0.00 78 1018.3
20260830133557 20 314 0.0 0.0 0.00 0.00 0.00 79 1018.5
20260830133052 19 266 0.0 0.0 0.00 0.00 0.00 80 1018.5
20260830132548 18 302 0.0 0.0 0.00 0.00 0.00 84 1018.6
20260830132043 18 307 0.0 0.0 0.00 0.00 0.00 84 1018.5
20260830131542 18 270 0.0 0.0 0.00 0.00 0.00 83 1018.3
20260830131037 18 296 0.0 0.0 0.00 0.00 0.00 86 1018.5
20260830130532 17 284 0.0 0.0 0.00 0.00 0.00 87 1018.4
20260830130027 17 286 0.0 0.0 0.00 0.00 0.00 86 1018.5
20260830125522 17 289 0.0 0.0 0.00 0.00 0.00 86 1018.4
20260830125021 16 288 0.0 0.0 0.00 0.00 0.00 88 1018.8
20260830124520 16 334 1.6 1.6 0.00 0.00 0.00 90 1018.6
20260830124016 16 291 0.0 0.0 0.00 0.00 0.00 92 1018.8
20260830123513 16 309 0.0 0.0 0.00 0.00 0.00 92 1018.7
20260830123008 15 287 0.0 0.0 0.00 0.00 0.00 94 1019.0
20260830122505 15 317 0.0 0.0 0.00 0.00 0.00 95 1018.7
20260830122000 15 318 0.0 0.0 0.00 0.00 0.00 96 1018.8
20260830121455 15 310 0.0 0.0 0.00 0.00 0.00 97 1018.6
20260830120949 15 304 0.0 0.0 0.00 0.00 0.00 96 1018.9
20260830120445 14 316 0.0 0.0 0.00 0.00 0.00 98 1018.7
20260830115941 13 300 0.0 0.0 0.00 0.00 0.00 98 1018.9
20260830115431 13 286 0.0 0.0 0.00 0.00 0.00 99 1018.9
20260830114926 13 287 0.0 0.0 0.00 0.00 0.00 99 1018.7
20260830114423 13 296 0.0 0.0 0.00 0.00 0.00 99 1018.9
20260830113923 13 298 0.0 0.0 0.00 0.00 0.00 99 1019.0
20260830113418 13 294 0.0 0.0 0.00 0.00 0.00 99 1019.1
20260830112914 13 298 0.0 0.0 0.00 0.00 0.00 99 1018.9
20260830112410 13 313 0.0 0.0 0.00 0.00 0.00 99 1018.9
20260830111905 13 350 0.0 0.0 0.00 0.00 0.00 99 1018.9
20260830111400 13 324 0.0 0.0 0.00 0.00 0.00 99 1018.8
20260830110856 12 315 0.0 0.0 0.00 0.00 0.00 99 1018.8
20260830110352 12 310 0.0 0.0 0.00 0.00 0.00 99 1018.8
20260830105850 12 315 0.0 0.0 0.00 0.00 0.00 99 1018.6
20260830105347 12 305 0.0 0.0 0.00 0.00 0.00 99 1018.7
20260830104843 11 300 0.0 0.0 0.00 0.00 0.00 99 1018.7
20260830104340 11 301 0.0 0.0 0.00 0.00 0.00 99 1018.8
20260830103838 11 308 0.0 0.0 0.00 0.00 0.00 99 1018.9
20260830103335 10 308 0.0 0.0 0.00 0.00 0.00 99 1019.0
20260830102832 10 304 0.0 0.0 0.00 0.00 0.00 99 1019.2
20260830102329 10 313 0.0 0.0 0.00 0.00 0.00 99 1019.3
20260830101825 10 314 0.0 0.0 0.00 0.00 0.00 99 1019.0
20260830101319 10 309 0.0 0.0 0.00 0.00 0.00 99 1019.3
20260830100818 10 311 0.0 0.0 0.00 0.00 0.00 99 1019.3
20260830100314 10 317 0.0 0.0 0.00 0.00 0.00 99 1019.2
20260830095812 10 337 0.0 0.0 0.00 0.00 0.00 99 1019.0
20260830095308 10 338 0.0 0.0 0.00 0.00 0.00 99 1019.2
20260830094804 10 313 0.0 0.0 0.00 0.00 0.00 99 1019.2
20260830094300 10 332 0.0 0.0 0.00 0.00 0.00 99 1019.2
20260830093755 10 332 0.0 0.0 0.00 0.00 0.00 99 1019.3
20260830093250 10 332 0.0 0.0 0.00 0.00 0.00 99 1019.5
20260830092745 9 332 0.0 0.0 0.00 0.00 0.00 99 1019.5
20260830092242 9 332 0.0 0.0 0.00 0.00 0.00 99 1019.4
20260830091738 9 332 0.0 0.0 0.00 0.00 0.00 99 1019.4
20260830091237 9 332 0.0 0.0 0.00 0.00 0.00 99 1019.5
20260830090736 9 332 0.0 0.0 0.00 0.00 0.00 99 1019.5
20260830090232 9 332 0.0 0.0 0.00 0.00 0.00 99 1019.6
20260830085731 9 332 0.0 0.0 0.00 0.00 0.00 99 1019.5
20260830085227 9 332 0.0 0.0 0.00 0.00 0.00 99 1019.4
20260830084722 9 332 0.0 0.0 0.00 0.00 0.00 99 1019.5
20260830084218 9 332 0.0 0.0 0.00 0.00 0.00 99 1019.4
20260830083713 10 332 0.0 0.0 0.00 0.00 0.00 99 1019.4
20260830083209 10 332 0.0 0.0 0.00 0.00 0.00 99 1019.3
20260830082708 9 332 0.0 0.0 0.00 0.00 0.00 99 1019.7
20260830082203 9 332 0.0 0.0 0.00 0.00 0.00 99 1019.4
20260830081659 10 332 0.0 0.0 0.00 0.00 0.00 99 1019.5
20260830081158 10 332 0.0 0.0 0.00 0.00 0.00 99 1019.6
20260830080653 10 332 0.0 0.0 0.00 0.00 0.00 99 1019.6
20260830080149 10 332 0.0 0.0 0.00 0.00 0.00 99 1019.5
20260830075648 10 332 0.0 0.0 0.00 0.00 0.00 99 1019.4
20260830075143 9 332 0.0 0.0 0.00 0.00 0.00 99 1019.3
20260830074639 9 332 0.0 0.0 0.00 0.00 0.00 99 1019.3
20260830074135 9 332 0.0 0.0 0.00 0.00 0.00 99 1019.8
20260830073631 9 332 0.0 0.0 0.00 0.00 0.00 99 1019.6
20260830073126 10 332 0.0 0.0 0.00 0.00 0.00 99 1019.6
20260830072621 10 332 0.0 0.0 0.00 0.00 0.00 99 1019.6
20260830072121 9 332 0.0 0.0 0.00 0.00 0.00 99 1019.3
20260830071617 9 332 0.0 0.0 0.00 0.00 0.00 99 1019.6
20260830071114 10 332 0.0 0.0 0.00 0.00 0.00 99 1019.6
20260830070609 10 332 0.0 0.0 0.00 0.00 0.00 99 1019.7
20260830070104 10 332 0.0 0.0 0.00 0.00 0.00 99 1019.5
20260830065603 10 332 0.0 0.0 0.00 0.00 0.00 99 1019.4
20260830065102 10 332 0.0 0.0 0.00 0.00 0.00 99 1019.5
20260830064556 10 332 0.0 0.0 0.00 0.00 0.00 99 1019.6
20260830064051 10 332 0.0 0.0 0.00 0.00 0.00 99 1019.6
20260830063546 10 332 0.0 0.0 0.00 0.00 0.00 99 1019.8
20260830063045 10 332 0.0 0.0 0.00 0.00 0.00 99 1019.8
20260830062544 10 332 0.0 0.0 0.00 0.00 0.00 99 1019.9
20260830062040 10 332 0.0 0.0 0.00 0.00 0.00 99 1019.6
20260830061534 10 332 0.0 0.0 0.00 0.00 0.00 99 1019.7
20260830061030 10 332 0.0 0.0 0.00 0.00 0.00 99 1019.8
20260830060526 10 332 0.0 0.0 0.00 0.00 0.00 99 1019.9
20260830060023 10 332 0.0 0.0 0.00 0.00 0.00 99 1019.9
20260830055518 10 332 0.0 0.0 0.00 0.00 0.00 99 1019.9
20260830055014 10 332 0.0 0.0 0.00 0.00 0.00 99 1020.1
20260830054509 10 332 0.0 0.0 0.00 0.00 0.00 99 1020.0
20260830054005 10 332 0.0 0.0 0.00 0.00 0.00 99 1020.0
20260830053500 10 332 0.0 0.0 0.00 0.00 0.00 99 1020.0
20260830052958 10 332 0.0 0.0 0.00 0.00 0.00 99 1020.0
20260830052449 9 332 0.0 0.0 0.00 0.00 0.00 99 1020.0
20260830051944 9 332 0.0 0.0 0.00 0.00 0.00 99 1020.0
20260830051439 10 332 0.0 0.0 0.00 0.00 0.00 99 1020.0
20260830050938 10 332 0.0 0.0 0.00 0.00 0.00 99 1020.1
20260830050434 10 332 0.0 0.0 0.00 0.00 0.00 99 1019.9
20260830045932 10 332 0.0 0.0 0.00 0.00 0.00 99 1020.2
20260830045427 10 332 0.0 0.0 0.00 0.00 0.00 99 1020.0
20260830044926 10 332 0.0 0.0 0.00 0.00 0.00 99 1020.3
20260830044422 10 332 0.0 0.0 0.00 0.00 0.00 99 1020.0
20260830043916 10 332 0.0 0.0 0.00 0.00 0.00 99 1020.4
20260830043411 10 332 0.0 0.0 0.00 0.00 0.00 99 1020.4
20260830042903 10 332 0.0 0.0 0.00 0.00 0.00 99 1020.3
20260830042358 10 332 0.0 0.0 0.00 0.00 0.00 99 1020.4
20260830041857 10 332 0.0 0.0 0.00 0.00 0.00 99 1020.2
20260830041356 10 332 0.0 0.0 0.00 0.00 0.00 99 1020.3
20260830040852 10 332 0.0 0.0 0.00 0.00 0.00 99 1020.4
20260830040348 10 332 0.0 0.0 0.00 0.00 0.00 99 1020.3
20260830035847 11 332 0.0 0.0 0.00 0.00 0.00 99 1020.3
20260830035345 11 332 0.0 0.0 0.00 0.00 0.00 99 1020.3
20260830034841 11 332 0.0 0.0 0.00 0.00 0.00 99 1020.3
20260830034336 10 302 0.0 0.0 0.00 0.00 0.00 99 1020.4
20260830033831 11 301 0.0 0.0 0.00 0.00 0.00 99 1020.6
20260830033332 11 304 0.0 0.0 0.00 0.00 0.00 99 1020.3
20260830032827 11 322 0.0 0.0 0.00 0.00 0.00 99 1020.4
20260830032321 11 311 0.0 0.0 0.00 0.00 0.00 99 1020.7
20260830031816 11 311 0.0 0.0 0.00 0.00 0.00 99 1020.4
20260830031312 11 306 0.0 0.0 0.00 0.00 0.00 99 1020.8
20260830030808 11 302 0.0 0.0 0.00 0.00 0.00 99 1020.3
20260830030303 11 298 0.0 0.0 0.00 0.00 0.00 99 1020.5
20260830025802 11 296 0.0 0.0 0.00 0.00 0.00 99 1020.5
20260830025256 11 329 0.0 0.0 0.00 0.00 0.00 99 1020.4
20260830024756 11 329 0.0 0.0 0.00 0.00 0.00 99 1020.4
20260830024250 12 329 0.0 0.0 0.00 0.00 0.00 99 1020.5
20260830023748 12 329 0.0 0.0 0.00 0.00 0.00 99 1020.5
20260830023247 12 329 0.0 0.0 0.00 0.00 0.00 99 1020.5
20260830022746 12 329 0.0 0.0 0.00 0.00 0.00 99 1020.3
20260830022241 12 326 0.0 0.0 0.00 0.00 0.00 99 1020.4
20260830021736 12 326 0.0 0.0 0.00 0.00 0.00 99 1020.5
20260830021231 12 326 0.0 0.0 0.00 0.00 0.00 99 1020.4
20260830020731 12 326 0.0 0.0 0.00 0.00 0.00 99 1020.7
20260830020226 12 326 0.0 0.0 0.00 0.00 0.00 99 1020.6
20260830015725 12 326 0.0 0.0 0.00 0.00 0.00 99 1020.5
20260830015221 12 326 0.0 0.0 0.00 0.00 0.00 99 1020.5
20260830014716 12 326 0.0 0.0 0.00 0.00 0.00 99 1020.5
20260830014212 12 326 0.0 0.0 0.00 0.00 0.00 98 1020.5
20260830013707 12 326 0.0 0.0 0.00 0.00 0.00 98 1020.5
20260830013202 12 324 0.0 0.0 0.00 0.00 0.00 98 1020.4
20260830012657 12 324 0.0 0.0 0.00 0.00 0.00 98 1020.5
20260830012153 13 324 0.0 0.0 0.00 0.00 0.00 98 1020.3